TimeEST,TemperatureF,Dew PointF,Humidity,Sea Level PressureIn,VisibilityMPH,Wind Direction,Wind SpeedMPH,Gust SpeedMPH,PrecipitationIn,Events,Conditions,WindDirDegrees,DateUTC
12:15 AM,44.6,33.8,66,30.23,10.0,South,3.5,-,N/A,,Overcast,170,2013-01-09 05:15:00
12:55 AM,44.6,33.8,66,30.23,10.0,South,4.6,-,N/A,,Overcast,170,2013-01-09 05:55:00
1:16 AM,44.6,33.8,66,30.24,10.0,South,5.8,-,N/A,,Overcast,170,2013-01-09 06:16:00
1:35 AM,44.6,33.8,66,30.24,10.0,South,4.6,-,N/A,,Mostly Cloudy,190,2013-01-09 06:35:00
1:55 AM,44.6,33.8,66,30.25,10.0,South,5.8,-,N/A,,Mostly Cloudy,180,2013-01-09 06:55:00
2:15 AM,44.6,35.6,71,30.25,10.0,South,5.8,-,N/A,,Overcast,180,2013-01-09 07:15:00
2:35 AM,44.6,35.6,71,30.25,10.0,South,5.8,-,N/A,,Overcast,170,2013-01-09 07:35:00
2:55 AM,44.6,35.6,71,30.25,10.0,South,6.9,-,N/A,,Overcast,180,2013-01-09 07:55:00
3:15 AM,46.4,35.6,66,30.26,10.0,South,9.2,-,N/A,,Overcast,190,2013-01-09 08:15:00
3:35 AM,46.4,35.6,66,30.26,10.0,South,9.2,-,N/A,,Overcast,190,2013-01-09 08:35:00
3:55 AM,46.4,35.6,66,30.26,10.0,South,6.9,-,N/A,,Overcast,190,2013-01-09 08:55:00
4:16 AM,46.4,35.6,66,30.27,10.0,SSW,6.9,-,N/A,,Overcast,200,2013-01-09 09:16:00
4:35 AM,46.4,37.4,71,30.27,10.0,SSW,9.2,-,N/A,,Overcast,200,2013-01-09 09:35:00
4:55 AM,46.4,37.4,71,30.27,10.0,SW,9.2,-,N/A,,Overcast,220,2013-01-09 09:55:00
5:15 AM,44.6,37.4,76,30.28,10.0,West,5.8,-,N/A,,Overcast,280,2013-01-09 10:15:00
5:35 AM,44.6,37.4,76,30.30,10.0,NW,9.2,-,N/A,,Overcast,310,2013-01-09 10:35:00
6:15 AM,42.8,39.2,87,30.33,9.0,WNW,6.9,-,N/A,,Overcast,300,2013-01-09 11:15:00
6:35 AM,42.8,39.2,87,30.34,10.0,West,5.8,-,N/A,,Overcast,270,2013-01-09 11:35:00
6:55 AM,42.8,39.2,87,30.34,7.0,WSW,5.8,-,N/A,,Overcast,250,2013-01-09 11:55:00
7:15 AM,42.8,39.2,87,30.34,5.0,West,6.9,-,N/A,,Overcast,280,2013-01-09 12:15:00
7:35 AM,42.8,39.2,87,30.34,5.0,West,5.8,-,N/A,,Overcast,270,2013-01-09 12:35:00
8:15 AM,44.6,41.0,87,30.36,8.0,West,6.9,-,N/A,,Overcast,260,2013-01-09 13:15:00
8:35 AM,42.8,41.0,93,30.36,5.0,SW,4.6,-,N/A,,Overcast,230,2013-01-09 13:35:00
8:55 AM,42.8,41.0,93,30.37,4.0,SSW,5.8,-,N/A,,Overcast,200,2013-01-09 13:55:00
9:15 AM,44.6,41.0,87,30.38,5.0,South,4.6,-,N/A,,Overcast,190,2013-01-09 14:15:00
9:35 AM,44.6,41.0,87,30.39,4.0,SSW,3.5,-,N/A,,Overcast,210,2013-01-09 14:35:00
9:55 AM,44.6,41.0,87,30.39,4.0,South,4.6,-,N/A,,Overcast,190,2013-01-09 14:55:00
10:15 AM,44.6,41.0,87,30.40,4.0,South,5.8,-,N/A,,Overcast,190,2013-01-09 15:15:00
10:35 AM,44.6,42.8,93,30.41,5.0,South,5.8,-,N/A,,Overcast,180,2013-01-09 15:35:00
11:15 AM,46.4,42.8,87,30.42,7.0,SSW,6.9,-,N/A,,Partly Cloudy,210,2013-01-09 16:15:00
11:55 AM,50.0,44.6,82,30.42,10.0,West,3.5,-,N/A,,Clear,260,2013-01-09 16:55:00
12:15 PM,50.0,44.6,82,30.40,10.0,WNW,4.6,-,N/A,,Clear,290,2013-01-09 17:15:00
12:55 PM,50.0,44.6,82,30.38,10.0,WSW,5.8,-,N/A,,Clear,250,2013-01-09 17:55:00
1:15 PM,51.8,44.6,76,30.38,10.0,Calm,Calm,-,N/A,,Clear,0,2013-01-09 18:15:00
1:35 PM,53.6,44.6,72,30.38,10.0,West,5.8,-,N/A,,Clear,280,2013-01-09 18:35:00
2:15 PM,-9999,-9999,N/A,-9999,-9999.0,North,-9999.0,-,N/A,,Unknown,0,2013-01-09 19:15:00
2:35 PM,-9999,-9999,N/A,-9999,-9999.0,North,-9999.0,-,N/A,,Unknown,0,2013-01-09 19:35:00
2:55 PM,-9999,-9999,N/A,-9999,-9999.0,North,-9999.0,-,N/A,,Unknown,0,2013-01-09 19:55:00
3:15 PM,-9999,-9999,N/A,-9999,-9999.0,North,-9999.0,-,N/A,,Unknown,0,2013-01-09 20:15:00
3:35 PM,-9999,-9999,N/A,-9999,-9999.0,North,-9999.0,-,N/A,,Unknown,0,2013-01-09 20:35:00
3:55 PM,-9999,-9999,N/A,-9999,-9999.0,North,-9999.0,-,N/A,,Unknown,0,2013-01-09 20:55:00
4:15 PM,-9999,-9999,N/A,-9999,-9999.0,North,-9999.0,-,N/A,,Unknown,0,2013-01-09 21:15:00
4:35 PM,-9999,-9999,N/A,-9999,-9999.0,North,-9999.0,-,N/A,,Unknown,0,2013-01-09 21:35:00
4:55 PM,-9999,-9999,N/A,-9999,-9999.0,North,-9999.0,-,N/A,,Unknown,0,2013-01-09 21:55:00
5:15 PM,-9999,-9999,N/A,-9999,-9999.0,North,-9999.0,-,N/A,,Unknown,0,2013-01-09 22:15:00
5:35 PM,-9999,-9999,N/A,-9999,-9999.0,North,-9999.0,-,N/A,,Unknown,0,2013-01-09 22:35:00
6:15 PM,-9999,-9999,N/A,-9999,-9999.0,North,-9999.0,-,N/A,,Unknown,0,2013-01-09 23:15:00
6:35 PM,-9999,-9999,N/A,-9999,-9999.0,North,-9999.0,-,N/A,,Unknown,0,2013-01-09 23:35:00
6:55 PM,-9999,-9999,N/A,-9999,-9999.0,North,-9999.0,-,N/A,,Unknown,0,2013-01-09 23:55:00
7:15 PM,-9999,-9999,N/A,-9999,-9999.0,North,-9999.0,-,N/A,,Unknown,0,2013-01-10 00:15:00
7:35 PM,-9999,-9999,N/A,-9999,-9999.0,North,-9999.0,-,N/A,,Unknown,0,2013-01-10 00:35:00
7:55 PM,-9999,-9999,N/A,-9999,-9999.0,North,-9999.0,-,N/A,,Unknown,0,2013-01-10 00:55:00
8:15 PM,-9999,-9999,N/A,-9999,-9999.0,North,-9999.0,-,N/A,,Unknown,0,2013-01-10 01:15:00
8:55 PM,-9999,-9999,N/A,-9999,-9999.0,North,-9999.0,-,N/A,,Unknown,0,2013-01-10 01:55:00
9:15 PM,-9999,-9999,N/A,-9999,-9999.0,North,-9999.0,-,N/A,,Unknown,0,2013-01-10 02:15:00
9:35 PM,-9999,-9999,N/A,-9999,-9999.0,North,-9999.0,-,N/A,,Unknown,0,2013-01-10 02:35:00
9:55 PM,-9999,-9999,N/A,-9999,-9999.0,North,-9999.0,-,N/A,,Unknown,0,2013-01-10 02:55:00
10:15 PM,-9999,-9999,N/A,-9999,-9999.0,North,-9999.0,-,N/A,,Unknown,0,2013-01-10 03:15:00
10:35 PM,-9999,-9999,N/A,-9999,-9999.0,North,-9999.0,-,N/A,,Unknown,0,2013-01-10 03:35:00
10:55 PM,-9999,-9999,N/A,-9999,-9999.0,North,-9999.0,-,N/A,,Unknown,0,2013-01-10 03:55:00
11:15 PM,-9999,-9999,N/A,-9999,-9999.0,North,-9999.0,-,N/A,,Unknown,0,2013-01-10 04:15:00
11:35 PM,-9999,-9999,N/A,-9999,-9999.0,North,-9999.0,-,N/A,,Unknown,0,2013-01-10 04:35:00
11:56 PM,-9999,-9999,N/A,-9999,-9999.0,North,-9999.0,-,N/A,,Unknown,0,2013-01-10 04:56:00